Flag for Norway Weather past 2 weeks in Fevik, Norway

Now
37 °F

Chilly.


Feels Like: 32 °F
Forecast: 33 / 47 °F
Wind: 7 mph from Southwest

Location: Torungen Fyr

Current Time: Apr 1, 2015 at 10:23:00 AM

Latest Report: Apr 1, 2015 at 9:00 AM


Visibility: N/A

Pressure: 29.32 "Hg

Humidity: 79%

Dew point: 31 °F

Location of FevikLocation

Historic Weather in Fevik — Graph

°F

Fevik temperature yesterday

Maximum temperature yesterday: 42 °F (at 8:00 PM)
Minimum temperature yesterday: 33 °F (at 8:00 AM)
Average temperature yesterday: 38 °F

Past Weeks' High & Low Weather Summary

 TemperatureHumidityPressure
High49 °F (Mar 30, 2:00 PM)100% (Mar 26, 12:00 PM)30.64 "Hg (Mar 26, 12:00 PM)
Low31 °F (Mar 22, 12:00 AM)46% (Mar 21, 8:00 PM)28.94 "Hg (Mar 30, 12:00 AM)
Average39 °F85%29.83 "Hg
* Reported Mar 17 8:00 AM — Apr 1 9:00 AM, Fevik, Weather by CustomWeather, © 2015

Note: Actual official high and low records may vary slightly from our data, if they occured in-between our weather recording intervals... More about our weather records

Advertising

Fevik weather history for previous 24 hours

 ConditionsComfort  
Time TempWeatherWind HumidityBarometerVisibility
9:00 AM
Wed, Apr 1
37 °FChilly.7 mph79%29.32 "HgN/A
8:00 AM36 °FChilly.7 mph80%29.29 "HgN/A
7:00 AM36 °FChilly.9 mph81%29.26 "HgN/A
6:00 AM36 °FChilly.8 mph79%29.26 "HgN/A
5:00 AM36 °FChilly.6 mph79%29.26 "HgN/A
4:00 AM36 °FChilly.6 mph76%29.26 "HgN/A
3:00 AM37 °FChilly.8 mph77%29.23 "HgN/A
2:00 AM37 °FChilly.7 mph75%29.23 "HgN/A
1:00 AM39 °FChilly.7 mph68%29.21 "HgN/A
12:00 AM39 °FChilly.7 mph63%29.21 "HgN/A
10:00 PM
Tue, Mar 31
40 °FQuite cool.6 mph79%29.15 "HgN/A
9:00 PM42 °FQuite cool.7 mph75%29.15 "HgN/A
8:00 PM42 °FQuite cool.5 mph85%29.12 "HgN/A
7:00 PM41 °FQuite cool.9 mph89%29.12 "HgN/A
6:00 PM40 °FQuite cool.13 mph87%29.09 "HgN/A
5:00 PM40 °FQuite cool.9 mph82%29.09 "HgN/A
4:00 PM40 °FQuite cool.7 mph78%29.06 "HgN/A
3:00 PM40 °FChilly.3 mph71%29.06 "HgN/A
2:00 PM40 °FQuite cool.3 mph69%29.03 "HgN/A
1:00 PM39 °FChilly.5 mph71%29.03 "HgN/A
12:00 PM38 °FChilly.5 mph68%29.00 "HgN/A
11:00 AM37 °FChilly.6 mph73%29.00 "HgN/A
10:00 AM36 °FChilly.6 mph79%29.00 "HgN/A
Weather by CustomWeather, © 2015

See weather overviewHow to use our weather pages